FW7467 Weather Reports


time (UTC)temp
C
wind
direction
speed
KPH
gust
KPH
rain 1hr
cm
rain 24hr
cm
rain mn
cm
humidity
%
barometer
mb
20260507050007 8 360 4.8 17.7 0.03 1.47 0.03 90 1004.6
20260507044518 8 360 4.8 16.1 0.05 1.47 0.03 91 1004.9
20260507043005 8 360 4.8 12.9 0.05 1.47 0.03 92 1005.0
20260507041505 8 360 0.0 14.5 0.05 1.45 0.00 92 1005.1
20260507040007 8 360 3.2 14.5 0.05 1.45 0.00 91 1005.2
20260507034507 9 360 1.6 16.1 0.03 1.42 1.42 91 1005.2
20260507033004 9 360 0.0 14.5 0.05 1.42 1.42 92 1005.0
20260507031507 9 360 1.6 8.0 0.03 1.40 1.40 93 1004.7
20260507030016 10 360 3.2 12.9 0.05 1.40 1.40 93 1004.8
20260507024514 10 360 6.4 17.7 0.05 1.40 1.40 93 1004.6
20260507023015 10 360 6.4 24.1 0.03 1.37 1.37 93 1004.3
20260507021520 10 360 8.0 20.9 0.03 1.37 1.37 93 1004.3
20260507020014 11 360 4.8 16.1 0.00 1.32 1.32 92 1004.4
20260507014515 11 360 4.8 14.5 0.00 1.32 1.32 92 1004.1
20260507013016 12 360 3.2 17.7 0.00 1.32 1.32 92 1004.3
20260507011520 12 360 4.8 12.9 0.00 1.32 1.32 93 1004.0
20260507010025 12 360 1.6 9.7 0.00 1.32 1.32 95 1004.1
20260507004516 12 360 1.6 9.7 0.03 1.32 1.32 95 1004.0
20260507003026 12 360 3.2 12.9 0.03 1.32 1.32 94 1003.9
20260507001524 12 360 4.8 12.9 0.05 1.32 1.32 95 1003.7
20260507000019 13 355 1.6 8.0 0.08 1.32 1.32 95 1003.5
20260506234520 14 347 3.2 11.3 0.10 1.32 1.32 98 1003.4
20260506233020 15 153 11.3 20.9 0.13 1.32 1.32 98 1003.0
20260506231520 14 116 8.0 17.7 0.10 1.30 1.30 99 1003.2
20260506230021 14 130 3.2 6.4 0.08 1.27 1.27 98 1003.1
20260506224524 15 122 1.6 6.4 0.03 1.22 1.22 98 1003.4
20260506223023 15 104 3.2 11.3 0.00 1.19 1.19 98 1003.5
20260506221522 14 128 3.2 11.3 0.00 1.19 1.19 97 1003.7
20260506220020 14 128 3.2 11.3 0.03 1.22 1.19 97 1004.0
20260506214505 14 132 6.4 16.1 0.03 1.27 1.19 97 1004.3
20260506213005 15 139 11.3 19.3 0.03 1.27 1.19 96 1004.4
20260506211506 15 123 9.7 19.3 0.05 1.27 1.19 97 1004.4
20260506210004 15 124 11.3 17.7 0.03 1.24 1.17 98 1004.4
20260506204524 15 124 6.4 11.3 0.05 1.24 1.17 99 1004.5
20260506203028 15 113 1.6 4.8 0.10 1.24 1.17 99 1004.4
20260506201522 15 113 1.6 4.8 0.10 1.22 1.14 99 1004.4
20260506200021 15 113 3.2 4.8 0.15 1.22 1.14 99 1004.6
20260506194522 14 113 0.0 3.2 0.15 1.19 1.12 98 1004.9
20260506193026 14 113 1.6 3.2 0.13 1.14 1.07 98 1004.9
20260506191525 15 113 1.6 6.4 0.18 1.12 1.04 98 1004.9
20260506190024 14 117 1.6 6.4 0.30 1.07 0.99 97 1005.2
20260506184531 14 98 4.8 12.9 0.79 1.04 0.97 97 1005.3
20260506183024 14 112 4.8 11.3 0.91 1.02 0.94 97 1005.4
20260506181530 14 150 4.8 6.4 0.86 0.94 0.86 96 1006.2
20260506180028 15 144 3.2 8.0 0.69 0.76 0.69 94 1006.2
20260506174525 15 210 1.6 4.8 0.18 0.25 0.18 89 1006.0
20260506173028 16 101 0.0 3.2 0.03 0.10 0.03 87 1005.7
20260506171529 16 101 0.0 4.8 0.00 0.08 0.00 84 1006.0
20260506170025 16 101 0.0 1.6 0.00 0.08 0.00 86 1006.2
20260506164531 16 101 0.0 4.8 0.00 0.08 0.00 87 1006.6
20260506163026 16 93 1.6 4.8 0.00 0.08 0.00 85 1007.1
20260506161524 16 93 0.0 3.2 0.00 0.08 0.00 84 1007.2
20260506160030 16 93 0.0 3.2 0.00 0.08 0.00 83 1007.5
20260506154529 16 93 0.0 3.2 0.00 0.08 0.00 82 1007.5
20260506153025 16 93 0.0 6.4 0.00 0.08 0.00 80 1007.8
20260506151533 16 84 0.0 4.8 0.00 0.08 0.00 81 1007.9
20260506150026 16 84 0.0 1.6 0.00 0.08 0.00 81 1007.9
20260506144524 16 84 0.0 1.6 0.00 0.08 0.00 82 1007.9
20260506143028 15 84 0.0 3.2 0.00 0.08 0.00 82 1007.9
20260506141525 15 84 0.0 3.2 0.00 0.08 0.00 83 1007.8
20260506140029 15 84 0.0 3.2 0.00 0.08 0.00 83 1008.0
20260506134526 15 84 0.0 3.2 0.00 0.08 0.00 84 1008.2
20260506133041 15 60 1.6 4.8 0.00 0.08 0.00 85 1008.1
20260506131531 15 333 0.0 3.2 0.00 0.08 0.00 84 1008.4
20260506130028 15 336 0.0 4.8 0.00 0.08 0.00 84 1008.5
20260506124504 14 326 3.2 6.4 0.00 0.08 0.00 86 1008.6
20260506123007 14 44 1.6 4.8 0.00 0.08 0.00 88 1008.7
20260506121504 13 44 0.0 4.8 0.00 0.08 0.00 89 1008.8
20260506120007 13 352 1.6 4.8 0.00 0.08 0.00 90 1008.9
20260506114504 13 5 0.0 4.8 0.00 0.08 0.00 89 1009.0
20260506113009 13 11 1.6 4.8 0.00 0.08 0.00 90 1009.0
20260506111508 13 11 0.0 3.2 0.00 0.08 0.00 90 1008.9
20260506110007 13 11 0.0 4.8 0.00 0.08 0.00 92 1009.0
20260506104507 12 11 0.0 3.2 0.00 0.08 0.00 92 1009.0
20260506103004 12 11 1.6 8.0 0.00 0.08 0.00 92 1008.9
20260506101504 12 32 1.6 3.2 0.00 0.08 0.00 92 1008.8
20260506100004 12 32 0.0 3.2 0.00 0.08 0.00 92 1008.9
20260506094504 12 32 0.0 1.6 0.00 0.08 0.00 91 1008.6
20260506093009 13 32 0.0 1.6 0.00 0.08 0.00 90 1008.8
20260506091506 13 32 0.0 6.4 0.00 0.08 0.00 89 1008.6
20260506090004 13 94 0.0 3.2 0.00 0.08 0.00 88 1008.3
20260506084508 13 94 1.6 6.4 0.00 0.08 0.00 88 1008.2
20260506083028 14 74 0.0 3.2 0.00 0.08 0.00 88 1008.2
20260506081528 13 74 0.0 3.2 0.00 0.08 0.00 88 1008.2
20260506073026 13 304 0.0 6.4 0.00 0.08 0.00 92 1008.1
20260506071526 12 50 0.0 4.8 0.00 0.08 0.00 94 1008.2
20260506061529 13 9 0.0 6.4 0.00 0.08 0.00 93 1007.1